This is the latest recevied weather packets stored in our database for station/object EA7RX-3. If no packets are shown the sender has not sent any weather packets the latest 10 day(s).
| Time | Temp. | Humidity | Pressure | Rain* | Wind** | Luminosity | Snow |
|---|---|---|---|---|---|---|---|
| 1777748901 | 19.44° C | 58% | 1011 hPa | - | - | - | - |
| 1777748301 | 20° C | 56% | 1010.7 hPa | - | - | - | - |
| 1777747701 | 21.11° C | 53% | 1010.4 hPa | - | - | - | - |
| 1777747101 | 21.11° C | 52% | 1010.5 hPa | - | - | - | - |
| 1777746501 | 22.78° C | 47% | 1010 hPa | - | - | - | - |
| 1777745901 | 26.11° C | 40% | 1009.1 hPa | - | - | - | - |
| 1777745301 | 29.44° C | 36% | 1008.4 hPa | - | - | - | - |
| 1777744701 | 31.11° C | 34% | 1008.1 hPa | - | - | - | - |
| 1777744101 | 30.56° C | 35% | 1008.1 hPa | - | - | - | - |
| 1777743501 | 30° C | 36% | 1008.3 hPa | - | - | - | - |
| 1777742901 | 23.89° C | 49% | 1009.9 hPa | - | - | - | - |
| 1777742302 | 21.67° C | 56% | 1010.4 hPa | - | - | - | - |
| 1777741701 | 21.11° C | 60% | 1010.3 hPa | - | - | - | - |
| 1777741102 | 21.11° C | 61% | 1010.6 hPa | - | - | - | - |
| 1777740501 | 20.56° C | 62% | 1010.8 hPa | - | - | - | - |
| 1777739901 | 21.11° C | 62% | 1010.7 hPa | - | - | - | - |
| 1777739301 | 21.67° C | 60% | 1010.5 hPa | - | - | - | - |
| 1777738701 | 20.56° C | 63% | 1010.9 hPa | - | - | - | - |
| 1777738101 | 21.11° C | 62% | 1010.6 hPa | - | - | - | - |
| 1777737501 | 21.67° C | 61% | 1010.6 hPa | - | - | - | - |
| 1777736902 | 21.11° C | 62% | 1010.7 hPa | - | - | - | - |
| 1777736301 | 21.11° C | 62% | 1010.8 hPa | - | - | - | - |
| 1777735701 | 21.67° C | 67% | 1010.7 hPa | - | - | - | - |
| 1777735101 | 21.11° C | 72% | 1010.6 hPa | - | - | - | - |
| 1777734501 | 20.56° C | 73% | 1010.9 hPa | - | - | - | - |
* Rain since midnight (hover to see other rain measurements)
** Current wind speed in m/s (hover to see current wind gust speed)